IK7IZV Weather Reports


Display with metric or nautical units.
time (UTC)temp
F
wind
direction
speed
MPH
gust
MPH
rain 1hr
in
rain 24hr
in
rain mn
in
humidity
%
barometer
mb
20260906030010 78 275 0.0 2.0 0.00 0.00 0.00 48 1018.4
20260906024510 78 274 0.0 3.0 0.00 0.00 0.00 48 1018.4
20260906023008 78 260 1.0 3.0 0.00 0.00 0.00 48 1018.3
20260906021504 79 267 2.0 4.0 0.00 0.00 0.00 47 1018.3
20260906020004 79 288 1.0 3.0 0.00 0.00 0.00 47 1018.2
20260906014506 80 280 0.0 4.0 0.00 0.00 0.00 47 1018.4
20260906013006 80 267 1.0 4.0 0.00 0.00 0.00 46 1018.3
20260906011502 80 243 2.0 7.0 0.00 0.00 0.00 46 1018.3
20260906010002 80 275 0.0 4.0 0.00 0.00 0.00 46 1018.3
20260906004603 80 274 0.0 4.0 0.00 0.00 0.00 46 1018.4
20260906003108 79 269 2.0 5.0 0.00 0.00 0.00 45 1018.2
20260906001559 79 287 2.0 5.0 0.00 0.00 0.00 45 1018.2
20260906000056 79 248 2.0 6.0 0.00 0.00 0.00 44 1018.3
20260905234603 80 269 1.0 5.0 0.00 0.00 0.00 42 1018.4
20260905233049 80 269 2.0 5.0 0.00 0.00 0.00 41 1018.5
20260905231546 80 272 3.0 7.0 0.00 0.00 0.00 40 1018.4
20260905230050 80 210 4.0 7.0 0.00 0.00 0.00 40 1018.5
20260905224544 81 274 2.0 7.0 0.00 0.00 0.00 39 1018.6
20260905223041 82 265 3.0 7.0 0.00 0.00 0.00 38 1018.5
20260905221538 82 296 2.0 6.0 0.00 0.00 0.00 37 1018.3
20260905220034 83 237 3.0 7.0 0.00 0.00 0.00 36 1018.3
20260905214533 83 279 3.0 8.0 0.00 0.00 0.00 35 1018.3
20260905213032 83 274 3.0 8.0 0.00 0.00 0.00 36 1018.3
20260905211531 83 238 3.0 7.0 0.00 0.00 0.00 36 1018.3
20260905210041 83 270 3.0 6.0 0.00 0.00 0.00 37 1018.4
20260905204531 83 283 3.0 10.0 0.00 0.00 0.00 38 1018.3
20260905203030 83 191 2.0 6.0 0.00 0.00 0.00 39 1018.3
20260905201536 84 302 1.0 5.0 0.00 0.00 0.00 38 1018.2
20260905200040 86 222 2.0 5.0 0.00 0.00 0.00 36 1018.3
20260905194527 87 224 3.0 8.0 0.00 0.00 0.00 36 1018.3
20260905193030 87 219 4.0 7.0 0.00 0.00 0.00 36 1018.2
20260905191527 88 269 6.0 11.0 0.00 0.00 0.00 36 1018.1
20260905190027 88 259 6.0 12.0 0.00 0.00 0.00 35 1018.1
20260905184534 89 271 5.0 10.0 0.00 0.00 0.00 36 1018.0
20260905183028 89 281 4.0 8.0 0.00 0.00 0.00 36 1018.1
20260905181525 89 191 3.0 7.0 0.00 0.00 0.00 37 1017.8
20260905180024 89 171 3.0 8.0 0.00 0.00 0.00 37 1017.8
20260905174532 90 165 4.0 8.0 0.00 0.00 0.00 38 1017.4
20260905173025 90 185 5.0 8.0 0.00 0.00 0.00 38 1017.3
20260905171523 90 186 4.0 9.0 0.00 0.00 0.00 38 1017.3
20260905170022 90 191 4.0 8.0 0.00 0.00 0.00 44 1017.2
20260905164521 89 182 2.0 5.0 0.00 0.00 0.00 42 1017.2
20260905163020 90 127 3.0 6.0 0.00 0.00 0.00 53 1017.1
20260905161519 90 167 4.0 10.0 0.00 0.00 0.00 47 1017.1
20260905160036 89 179 6.0 11.0 0.00 0.00 0.00 45 1017.1
20260905154516 89 153 5.0 11.0 0.00 0.00 0.00 51 1017.1
20260905153016 89 130 7.0 13.0 0.00 0.00 0.00 47 1017.1
20260905151515 88 172 5.0 12.0 0.00 0.00 0.00 51 1017.2
20260905150023 88 145 7.0 12.0 0.00 0.00 0.00 54 1017.4
20260905144536 88 189 3.0 12.0 0.00 0.00 0.00 52 1017.4
20260905143019 87 172 9.0 15.0 0.00 0.00 0.00 52 1017.4
20260905141510 87 153 7.0 13.0 0.00 0.00 0.00 55 1017.6
20260905140009 87 173 5.0 14.0 0.00 0.00 0.00 56 1017.6
20260905134514 87 153 6.0 15.0 0.00 0.00 0.00 57 1017.6
20260905133009 86 145 7.0 15.0 0.00 0.00 0.00 55 1017.7
20260905131507 86 157 8.0 16.0 0.00 0.00 0.00 59 1017.7
20260905130005 87 144 10.0 16.0 0.00 0.00 0.00 56 1017.9
20260905124502 86 122 10.0 18.0 0.00 0.00 0.00 56 1017.9
20260905123002 86 128 10.0 17.0 0.00 0.00 0.00 56 1018.1
20260905121500 88 139 12.0 16.0 0.00 0.00 0.00 52 1018.2
20260905120100 88 146 10.0 15.0 0.00 0.00 0.00 44 1018.4
20260905114627 88 142 9.0 15.0 0.00 0.00 0.00 50 1018.5
20260905113058 88 133 11.0 15.0 0.00 0.00 0.00 49 1018.5
20260905111555 89 141 9.0 13.0 0.00 0.00 0.00 41 1018.6
20260905110053 90 127 5.0 12.0 0.00 0.00 0.00 40 1018.6
20260905104554 89 113 8.0 12.0 0.00 0.00 0.00 40 1018.6
20260905103052 90 134 8.0 13.0 0.00 0.00 0.00 35 1018.7
20260905101552 90 126 6.0 11.0 0.00 0.00 0.00 34 1018.8
20260905100109 90 148 4.0 9.0 0.00 0.00 0.00 34 1018.9
20260905094604 90 138 4.0 9.0 0.00 0.00 0.00 33 1019.0
20260905093049 90 150 5.0 9.0 0.00 0.00 0.00 31 1019.0
20260905091559 90 158 4.0 9.0 0.00 0.00 0.00 33 1019.2
20260905090049 90 139 3.0 7.0 0.00 0.00 0.00 32 1019.2
20260905084548 91 140 1.0 5.0 0.00 0.00 0.00 31 1019.3
20260905083047 89 56 0.0 5.0 0.00 0.00 0.00 36 1019.3
20260905081547 90 89 2.0 4.0 0.00 0.00 0.00 34 1019.3
20260905080046 91 179 0.0 3.0 0.00 0.00 0.00 30 1019.3
20260905074553 89 316 0.0 1.0 0.00 0.00 0.00 33 1019.2
20260905073057 88 222 0.0 4.0 0.00 0.00 0.00 35 1019.2
20260905071535 86 280 1.0 4.0 0.00 0.00 0.00 38 1019.1
20260905070032 84 203 1.0 4.0 0.00 0.00 0.00 40 1019.2
20260905064528 82 255 2.0 5.0 0.00 0.00 0.00 41 1019.1
20260905063022 79 276 1.0 6.0 0.00 0.00 0.00 43 1019.0
20260905061517 77 281 2.0 7.0 0.00 0.00 0.00 44 1019.1
20260905060016 76 311 2.0 7.0 0.00 0.00 0.00 45 1019.1
20260905054514 74 270 3.0 10.0 0.00 0.00 0.00 46 1019.1
20260905053014 74 240 3.0 7.0 0.00 0.00 0.00 47 1019.1
20260905051510 73 206 3.0 8.0 0.00 0.00 0.00 48 1019.1
20260905050013 72 286 2.0 6.0 0.00 0.00 0.00 49 1019.2
20260905044510 71 291 3.0 8.0 0.00 0.00 0.00 51 1019.1
20260905043007 72 193 3.0 7.0 0.00 0.00 0.00 51 1019.0
20260905041506 72 302 2.0 7.0 0.00 0.00 0.00 52 1018.8
20260905040004 72 273 3.0 8.0 0.00 0.00 0.00 52 1018.8
20260905034502 73 217 2.0 5.0 0.00 0.00 0.00 52 1018.7
20260905033109 73 264 3.0 5.0 0.00 0.00 0.00 53 1018.7
20260905031614 73 189 0.0 4.0 0.00 0.00 0.00 54 1018.7